McCall, ID

11:05 AM MDT on May 28, 2017 (GMT -0600)
McCall

Weather History for KMYL - August, 2014

Change the Weather History Date:

Monday, August 11, 2014

  Actual Average Record
Temperature  
Mean Temperature 73 °F 61 °F  
Max Temperature 92 °F 79 °F 93 °F (1996)
Min Temperature 53 °F 42 °F 32 °F (1947)
Degree Days  
Heating Degree Days 0 5  
Month to date heating degree days 1 45  
Since 1 June heating degree days 333 562  
Since 1 July heating degree days 19 195  
Cooling Degree Days 8 0  
Month to date cooling degree days 47 7  
Year to date cooling degree days 178 23  
Since 1 June cooling degree days 178 23  
Growing Degree Days 22 (Base 50)    
Moisture  
Dew Point 42 °F    
Average Humidity 43    
Maximum Humidity 71    
Minimum Humidity 14    
Precipitation  
Precipitation T in 0.02 in 0.50 in (1941)
Month to date precipitation 0.03 0.19  
Year to date precipitation 15.45 12.55  
Sea Level Pressure  
Sea Level Pressure 30.08 in    
Wind  
Wind Speed 5 mph (SSE)    
Max Wind Speed 20 mph    
Max Gust Speed 25 mph    
Visibility 7 miles    
Events Rain , Thunderstorm    
T = Trace of Precipitation, MM = Missing Value Source: NWS Daily Summary

Daily Weather History Graph

Daily Weather History Graph

Search for Another Location

Airport or City:

Trip Planner

Search our weather history database for the weather conditions in past years. The results will help you decide how hot, cold, wet, or windy it might be!

Date:

Astronomy

Aug. 11, 2014 Rise Set
Actual Time 6:41 AM MDT 8:56 PM MDT
Civil Twilight 6:09 AM MDT 9:28 PM MDT
Nautical Twilight 5:29 AM MDT 10:08 PM MDT
Astronomical Twilight 4:44 AM MDT 10:53 PM MDT
Moon 9:20 PM MDT (8/11) 7:57 AM MDT (8/11)
Length of Visible Light 15h 19m
Length of Day
14h 14m
Full, 98% of the Moon is Illuminated
Aug 11
Full
Aug 17
Last Quarter
Aug 25
New
Sep 2
First Quarter
Sep 8
Full

Hourly Weather History & Observations

Time (MDT) Temp. Dew Point Humidity Pressure Visibility Wind Dir Wind Speed Gust Speed Precip Events Conditions
12:05 AM 69.1 °F 42.1 °F 38% 30.21 in 7.0 mi NNE 3.5 mph - N/A   Mostly Cloudy
12:20 AM 70.0 °F 42.1 °F 36% 30.21 in 6.0 mi North 5.8 mph - N/A   Haze
12:51 AM 66.9 °F 43.0 °F 42% 30.06 in 5.0 mi NW 5.8 mph - N/A   Haze
1:51 AM 62.1 °F 46.0 °F 56% 30.06 in 6.0 mi Calm Calm - N/A   Haze
3:51 AM 57.9 °F 42.1 °F 56% 30.06 in 4.0 mi NE 3.5 mph - N/A   Haze
4:51 AM 54.0 °F 44.1 °F 69% 30.08 in 4.0 mi WSW 3.5 mph - N/A   Haze
5:38 AM 55.0 °F 44.1 °F 67% 30.22 in 4.0 mi Calm Calm - N/A   Haze
5:51 AM 54.0 °F 44.1 °F 69% 30.07 in 4.0 mi Calm Calm - N/A   Haze
6:51 AM 54.0 °F 44.1 °F 69% 30.08 in 3.0 mi Calm Calm - N/A   Haze
7:03 AM 54.0 °F 42.1 °F 64% 30.22 in 2.5 mi Calm Calm - N/A   Haze
7:37 AM 57.0 °F 44.1 °F 62% 30.23 in 3.0 mi Calm Calm - N/A   Haze
7:51 AM 55.9 °F 44.1 °F 64% 30.09 in 3.0 mi Calm Calm - N/A   Haze
8:51 AM 63.0 °F 46.0 °F 54% 30.10 in 3.0 mi Calm Calm - N/A   Haze
9:51 AM 69.1 °F 46.9 °F 45% 30.08 in 3.0 mi SSW 4.6 mph - N/A   Haze
10:51 AM 73.9 °F 43.0 °F 33% 30.07 in 3.0 mi South 3.5 mph - N/A   Haze
11:51 AM 80.1 °F 45.0 °F 29% 30.05 in 6.0 mi Variable 4.6 mph - N/A   Haze
12:51 PM 86.0 °F 41.0 °F 20% 30.02 in 10.0 mi South 8.1 mph - N/A   Clear
1:51 PM 88.0 °F 37.0 °F 16% 30.02 in 10.0 mi South 6.9 mph 16.1 mph N/A   Clear
2:28 PM 90.0 °F 35.1 °F 14% 30.17 in 10.0 mi SSW 13.8 mph - N/A Thunderstorm Clear
2:43 PM 90.0 °F 35.1 °F 14% 30.17 in 10.0 mi SSW 11.5 mph - N/A   Clear
2:51 PM 89.1 °F 36.0 °F 15% 30.00 in 10.0 mi South 11.5 mph 19.6 mph N/A   Clear
3:51 PM 91.0 °F 36.0 °F 14% 29.98 in 10.0 mi SSW 10.4 mph 16.1 mph N/A   Clear
4:51 PM 89.1 °F 37.9 °F 16% 29.97 in 10.0 mi Variable 4.6 mph - N/A   Partly Cloudy
5:51 PM 87.1 °F 39.9 °F 19% 29.97 in 10.0 mi Calm Calm - N/A   Clear
6:00 PM 87.1 °F 39.0 °F 18% 30.12 in 10.0 mi East 5.8 mph - N/A Thunderstorm Clear
6:32 PM 84.9 °F 37.9 °F 19% 30.13 in 10.0 mi ENE 18.4 mph 25.3 mph N/A   Mostly Cloudy
6:51 PM 81.0 °F 39.9 °F 23% 29.99 in 10.0 mi ENE 15.0 mph 24.2 mph N/A Thunderstorm Thunderstorm
7:06 PM 78.1 °F 43.0 °F 29% 30.13 in 10.0 mi ENE 11.5 mph - N/A   Mostly Cloudy
7:51 PM 75.0 °F 46.0 °F 36% 30.01 in 10.0 mi NNE 8.1 mph - N/A   Clear
10:51 PM 69.1 °F 51.1 °F 53% 30.02 in 10.0 mi WSW 5.8 mph - 0.00 in Rain Light Rain
11:51 PM 69.1 °F 48.0 °F 47% 29.99 in 10.0 mi Calm Calm - 0.00 in   Clear